CW3517 Weather Reports


Display with metric or nautical units.
time (UTC)temp
F
wind
direction
speed
MPH
gust
MPH
rain 1hr
in
rain 24hr
in
rain mn
in
humidity
%
barometer
mb
20260510174003 57 25 9.0 18.0 0.00 0.00 0.00 61 1014.0
20260510173003 57 22 9.0 19.0 0.00 0.00 0.00 61 1014.1
20260510172003 56 22 9.0 16.0 0.00 0.00 0.00 64 1014.3
20260510171003 56 17 9.0 17.0 0.00 0.00 0.00 64 1014.4
20260510170003 56 18 9.0 19.0 0.00 0.00 0.00 65 1014.4
20260510165003 55 20 10.0 22.0 0.00 0.00 0.00 66 1014.4
20260510164003 55 31 13.0 21.0 0.00 0.00 0.00 65 1014.5
20260510163003 56 21 8.0 17.0 0.00 0.00 0.00 68 1014.6
20260510162003 55 31 13.0 20.0 0.00 0.00 0.00 66 1014.6
20260510161217 56 34 12.0 20.0 0.00 0.00 0.00 66 1014.7
20260510160003 56 29 12.0 25.0 0.00 0.00 0.00 67 1014.8
20260510155003 56 29 10.0 18.0 0.00 0.00 0.00 66 1014.7
20260510154003 56 29 11.0 20.0 0.00 0.00 0.00 67 1014.8
20260510153216 56 24 11.0 18.0 0.00 0.00 0.00 66 1014.9
20260510152003 56 26 11.0 19.0 0.00 0.00 0.00 67 1014.9
20260510151003 57 22 10.0 19.0 0.00 0.00 0.00 68 1015.1
20260510150004 57 22 10.0 20.0 0.00 0.00 0.00 68 1015.1
20260510145003 58 17 9.0 20.0 0.00 0.00 0.00 67 1015.2
20260510144218 58 21 12.0 22.0 0.00 0.00 0.00 67 1015.3
20260510143003 58 21 11.0 19.0 0.00 0.00 0.00 67 1015.2
20260510142003 60 7 9.0 18.0 0.00 0.00 0.00 65 1015.4
20260510141003 60 14 13.0 24.0 0.00 0.00 0.00 65 1015.5
20260510140218 61 15 10.0 24.0 0.00 0.00 0.00 63 1015.4
20260510135003 60 25 13.0 23.0 0.00 0.00 0.00 61 1015.6
20260510134003 61 36 12.0 22.0 0.00 0.00 0.00 59 1015.6
20260510133217 61 25 10.0 22.0 0.00 0.00 0.00 60 1015.6
20260510132003 61 17 11.0 19.0 0.00 0.00 0.00 61 1015.6
20260510131003 61 23 13.0 21.0 0.00 0.00 0.00 60 1015.6
20260510130219 61 28 13.0 28.0 0.00 0.00 0.00 61 1015.6
20260510125003 60 29 12.0 22.0 0.00 0.00 0.00 64 1015.6
20260510124003 60 29 11.0 23.0 0.00 0.00 0.00 64 1015.7
20260510123217 60 23 11.0 19.0 0.00 0.00 0.00 66 1015.8
20260510122003 60 22 11.0 21.0 0.00 0.00 0.00 65 1015.9
20260510121003 61 19 10.0 18.0 0.00 0.00 0.00 64 1015.9
20260510120003 61 27 10.0 17.0 0.00 0.00 0.00 63 1015.9
20260510115003 59 28 10.0 19.0 0.00 0.00 0.00 67 1016.0
20260510114003 60 21 11.0 22.0 0.00 0.00 0.00 67 1016.0
20260510113003 60 28 12.0 21.0 0.00 0.00 0.00 62 1016.1
20260510112003 59 26 12.0 21.0 0.00 0.00 0.00 64 1016.3
20260510111003 59 28 13.0 22.0 0.00 0.00 0.00 62 1016.3
20260510110003 60 40 14.0 24.0 0.00 0.00 0.00 63 1016.3
20260510105003 60 35 13.0 22.0 0.00 0.00 0.00 63 1016.4
20260510104003 59 21 13.0 23.0 0.00 0.00 0.00 64 1016.3
20260510103003 58 28 13.0 25.0 0.00 0.00 0.00 66 1016.4
20260510102003 58 35 12.0 19.0 0.00 0.00 0.00 66 1016.5
20260510101003 59 25 12.0 21.0 0.00 0.00 0.00 63 1016.6
20260510100003 59 23 13.0 22.0 0.00 0.00 0.00 64 1016.6
20260510095003 58 24 12.0 21.0 0.00 0.00 0.00 64 1016.7
20260510094003 58 38 11.0 20.0 0.00 0.00 0.00 64 1016.7
20260510093218 58 45 13.0 22.0 0.00 0.00 0.00 67 1016.7
20260510092003 58 42 13.0 21.0 0.00 0.00 0.00 66 1016.8
20260510091003 56 44 15.0 26.0 0.00 0.00 0.00 67 1017.0
20260510090005 56 37 14.0 26.0 0.00 0.00 0.00 69 1017.1
20260510085218 56 25 13.0 23.0 0.00 0.00 0.00 69 1017.1
20260510084003 55 22 12.0 22.0 0.00 0.00 0.00 69 1017.1
20260510083003 56 46 11.0 19.0 0.00 0.00 0.00 71 1017.1
20260510082003 56 36 11.0 22.0 0.00 0.00 0.00 70 1017.1
20260510081218 55 24 13.0 25.0 0.00 0.00 0.00 71 1017.2
20260510080004 54 32 12.0 20.0 0.00 0.00 0.00 73 1017.1
20260510075003 54 44 12.0 20.0 0.00 0.00 0.00 73 1017.1
20260510074003 54 37 12.0 22.0 0.00 0.00 0.00 74 1017.1
20260510073003 53 35 15.0 24.0 0.00 0.00 0.00 74 1017.0
20260510072003 53 43 9.0 17.0 0.00 0.00 0.00 77 1017.0
20260510071003 51 37 13.0 25.0 0.00 0.00 0.00 77 1016.9
20260510070003 51 37 11.0 20.0 0.00 0.00 0.00 77 1016.8
20260510065004 51 32 13.0 25.0 0.00 0.00 0.00 78 1016.5
20260510064003 50 35 11.0 22.0 0.00 0.00 0.00 79 1016.6
20260510063005 50 33 10.0 21.0 0.00 0.00 0.00 80 1016.4
20260510062003 49 30 9.0 21.0 0.00 0.00 0.00 81 1016.4
20260510061003 49 32 10.0 16.0 0.00 0.00 0.00 82 1016.4
20260510060003 48 32 10.0 19.0 0.00 0.00 0.00 83 1016.4
20260510055003 48 29 9.0 18.0 0.00 0.00 0.00 83 1016.4
20260510054003 48 31 10.0 17.0 0.00 0.00 0.00 84 1016.5
20260510053003 47 33 10.0 17.0 0.00 0.00 0.00 84 1016.6
20260510052004 47 28 10.0 18.0 0.00 0.00 0.00 84 1016.5
20260510051216 47 24 9.0 19.0 0.00 0.00 0.00 84 1016.6
20260510050216 47 28 9.0 15.0 0.00 0.00 0.00 84 1016.7
20260510045003 47 28 10.0 19.0 0.00 0.00 0.00 84 1016.6
20260510044003 47 29 9.0 21.0 0.00 0.00 0.00 83 1016.6
20260510043004 48 29 10.0 20.0 0.00 0.00 0.00 82 1016.5
20260510042003 48 25 11.0 19.0 0.00 0.00 0.00 81 1016.5
20260510041003 48 24 9.0 16.0 0.00 0.00 0.00 81 1016.6
20260510040003 49 22 9.0 16.0 0.00 0.00 0.00 79 1016.6
20260510035003 49 26 10.0 20.0 0.00 0.00 0.00 78 1016.5
20260510034003 49 23 11.0 19.0 0.00 0.00 0.00 78 1016.6
20260510033218 50 29 10.0 20.0 0.00 0.00 0.00 78 1016.6
20260510032003 50 26 10.0 18.0 0.00 0.00 0.00 79 1016.7
20260510031003 50 22 9.0 16.0 0.00 0.00 0.00 80 1016.8
20260510030003 50 23 9.0 16.0 0.00 0.00 0.00 81 1016.7
20260510025004 50 18 8.0 17.0 0.00 0.00 0.00 81 1016.7
20260510024003 50 18 8.0 16.0 0.00 0.00 0.00 81 1016.8
20260510023003 51 21 8.0 15.0 0.00 0.00 0.00 81 1016.9
20260510022003 51 17 8.0 16.0 0.00 0.00 0.00 81 1016.8
20260510021003 51 23 9.0 16.0 0.00 0.00 0.00 81 1016.7
20260510020003 51 23 7.0 14.0 0.00 0.00 0.00 81 1016.8
20260510015003 51 20 8.0 16.0 0.00 0.00 0.00 81 1016.6
20260510014003 52 23 7.0 15.0 0.00 0.00 0.00 81 1016.7
20260510013003 52 33 7.0 14.0 0.00 0.00 0.00 82 1016.7
20260510012003 52 37 7.0 14.0 0.00 0.00 0.00 82 1016.6
20260510011003 53 27 8.0 16.0 0.00 0.00 0.00 82 1016.7
20260510010003 53 30 9.0 18.0 0.00 0.00 0.00 82 1016.6
20260510005003 53 26 10.0 16.0 0.00 0.00 0.00 82 1016.6
20260510004003 54 28 9.0 18.0 0.00 0.00 0.00 82 1016.5
20260510003003 54 29 10.0 18.0 0.00 0.00 0.00 82 1016.6
20260510002003 54 29 11.0 18.0 0.00 0.00 0.00 82 1016.6
20260510001003 55 27 10.0 19.0 0.00 0.00 0.00 82 1016.6
20260510000003 55 26 10.0 17.0 0.00 0.00 0.00 82 1016.6
20260509235003 55 27 9.0 15.0 0.00 0.00 0.00 82 1016.6
20260509234003 55 27 10.0 17.0 0.00 0.00 0.00 81 1016.6
20260509233003 56 28 8.0 15.0 0.00 0.00 0.00 81 1016.5
20260509232003 56 27 7.0 14.0 0.00 0.00 0.00 81 1016.6
20260509231003 56 25 7.0 14.0 0.00 0.00 0.00 81 1016.5
20260509230218 56 29 8.0 14.0 0.00 0.00 0.00 81 1016.4
20260509225003 56 36 7.0 14.0 0.00 0.00 0.00 81 1016.5
20260509224218 56 32 8.0 15.0 0.00 0.00 0.00 81 1016.4
20260509223003 56 28 8.0 17.0 0.00 0.00 0.00 81 1016.3
20260509222003 56 34 7.0 15.0 0.00 0.00 0.00 80 1016.5
20260509221003 56 34 7.0 13.0 0.00 0.00 0.00 80 1016.6
20260509220003 56 34 7.0 14.0 0.00 0.00 0.00 80 1016.5
20260509215003 56 28 8.0 14.0 0.00 0.00 0.00 79 1016.5
20260509214003 57 22 8.0 20.0 0.00 0.00 0.00 78 1016.5
20260509213217 57 22 7.0 15.0 0.00 0.00 0.00 78 1016.5
20260509212003 58 19 9.0 18.0 0.00 0.00 0.00 77 1016.5
20260509211003 58 20 9.0 17.0 0.00 0.00 0.00 76 1016.4
20260509210217 58 18 9.0 16.0 0.00 0.00 0.00 75 1016.2
20260509205003 58 22 10.0 20.0 0.00 0.00 0.00 72 1016.1
20260509204003 59 21 8.0 15.0 0.00 0.00 0.00 68 1015.9
20260509203003 59 18 5.0 14.0 0.00 0.00 0.00 67 1015.8
20260509202003 59 10 3.0 9.0 0.00 0.00 0.00 65 1015.8
20260509201003 59 9 4.0 9.0 0.00 0.00 0.00 65 1015.7
20260509200003 60 3 4.0 9.0 0.00 0.00 0.00 64 1015.7
20260509195003 60 4 4.0 13.0 0.00 0.00 0.00 63 1015.7
20260509194217 61 6 4.0 12.0 0.00 0.00 0.00 63 1015.6
20260509193217 61 2 7.0 12.0 0.00 0.00 0.00 62 1015.5
20260509192003 62 357 5.0 13.0 0.00 0.00 0.00 61 1015.5
20260509191003 62 359 5.0 13.0 0.00 0.00 0.00 60 1015.6
20260509190003 62 359 5.0 14.0 0.00 0.00 0.00 60 1015.5
20260509185003 63 353 4.0 10.0 0.00 0.00 0.00 60 1015.5
20260509184003 64 358 3.0 10.0 0.00 0.00 0.00 61 1015.4
20260509183003 65 6 5.0 14.0 0.00 0.00 0.00 58 1015.3
20260509182003 65 348 5.0 14.0 0.00 0.00 0.00 57 1015.2
20260509181003 66 7 5.0 13.0 0.00 0.00 0.00 56 1015.2
20260509180003 67 14 5.0 12.0 0.00 0.00 0.00 54 1015.2
20260509175218 67 21 7.0 16.0 0.00 0.00 0.00 54 1015.2